Location: Arclight Observatory
(36.5667°N, 87.3333°W)
Time: 14:46:28
(UTC-05:00)

Hubble Space Telescope - Visible Passes

Search period start: 28 April 2015 00:00
Search period end: 08 May 2015 00:00
Orbit: 542 x 547 km, 28.5° (Epoch: 28 April)

Date Brightness Start Highest point End Pass type
(mag) Time Alt. Az. Time Alt. Az. Time Alt. Az.
30 Apr 2.8 21:16:58 10° SSW 21:18:08 15° SSW 21:18:08 15° SSW visible
01 May 2.4 21:08:03 10° SW 21:10:32 20° S 21:10:32 20° S visible
02 May 2.1 20:59:13 10° SW 21:02:31 23° S 21:02:49 23° SSE visible
03 May 2.0 20:50:28 10° SW 20:53:53 25° S 20:54:57 22° SSE visible
04 May 2.0 20:41:44 10° SW 20:45:13 26° S 20:46:59 19° SE visible
05 May 2.0 20:33:03 10° WSW 20:36:34 26° S 20:38:56 16° SE visible
05 May 3.5 22:14:18 10° WSW 22:14:24 10° WSW 22:14:24 10° WSW visible
06 May 2.1 20:24:24 10° WSW 20:27:54 26° S 20:30:51 13° SE visible
06 May 3.3 22:05:52 10° WSW 22:06:18 12° SW 22:06:18 12° SW visible
07 May 2.1 20:15:47 10° WSW 20:19:15 25° S 20:22:42 10° SE visible
07 May 3.3 21:57:33 10° SW 21:58:10 12° SW 21:58:10 12° SW visible
